This is the latest recevied weather packets stored in our database for station/object OE3AOG. If no packets are shown the sender has not sent any weather packets the latest 10 day(s).
| Time | Temp. | Humidity | Pressure | Rain* | Wind** | Luminosity | Snow |
|---|---|---|---|---|---|---|---|
| 1777563326 | 14.44° C | 26% | 1026 hPa | 0 mm | - | 242 W/m² | - |
| 1777562718 | 14.44° C | 26% | 1026.1 hPa | 0 mm | - | 261 W/m² | - |
| 1777561527 | 13.89° C | 25% | 1026.2 hPa | 0 mm | - | 160 W/m² | - |
| 1777560326 | 14.44° C | 25% | 1026.3 hPa | 0 mm | - | 374 W/m² | - |
| 1777557927 | 13.89° C | 26% | 1026.7 hPa | 0 mm | - | 477 W/m² | - |
| 1777557318 | 14.44° C | 26% | 1026.8 hPa | 0 mm | - | 504 W/m² | - |
| 1777556118 | 14.44° C | 27% | 1026.9 hPa | 0 mm | - | 542 W/m² | - |
| 1777555526 | 13.89° C | 27% | 1027 hPa | 0 mm | - | 562 W/m² | - |
| 1777554918 | 13.89° C | 28% | 1027 hPa | 0 mm | - | 580 W/m² | - |
| 1777554326 | 13.89° C | 28% | 1027.2 hPa | 0 mm | - | 596 W/m² | - |
| 1777553119 | 13.89° C | 26% | 1027.4 hPa | 0 mm | - | 619 W/m² | - |
| 1777552526 | 13.89° C | 29% | 1027.5 hPa | 0 mm | - | 629 W/m² | - |
| 1777551926 | 13.33° C | 28% | 1027.5 hPa | 0 mm | - | 641 W/m² | - |
| 1777551319 | 13.33° C | 28% | 1027.6 hPa | 0 mm | - | 648 W/m² | - |
| 1777550727 | 13.89° C | 29% | 1027.6 hPa | 0 mm | - | 653 W/m² | - |
| 1777548919 | 12.78° C | 30% | 1028 hPa | 0 mm | - | 672 W/m² | - |
| 1777548326 | 12.22° C | 30% | 1028 hPa | 0 mm | - | 675 W/m² | - |
| 1777547719 | 12.78° C | 29% | 1028.2 hPa | 0 mm | - | 680 W/m² | - |
| 1777545926 | 12.22° C | 29% | 1028.3 hPa | 0 mm | - | 683 W/m² | - |
| 1777545318 | 12.22° C | 28% | 1028.4 hPa | 0 mm | - | 682 W/m² | - |
| 1777544727 | 11.67° C | 29% | 1028.4 hPa | 0 mm | - | 678 W/m² | - |
| 1777544118 | 11.11° C | 32% | 1028.5 hPa | 0 mm | - | 671 W/m² | - |
| 1777543526 | 11.11° C | 33% | 1028.6 hPa | 0 mm | - | 666 W/m² | - |
| 1777542927 | 10.56° C | 32% | 1028.6 hPa | 0 mm | - | 657 W/m² | - |
| 1777542319 | 10.56° C | 33% | 1028.7 hPa | 0 mm | - | 649 W/m² | - |
* Rain latest hour (hover to see other rain measurements)
** Current wind speed in m/s (hover to see current wind gust speed)